Williamtown, Australia

4:33 PM AEDT on March 24, 2017 (GMT +1100)
Williamtown Military

Weather History for YWLM - October, 2012

Change the Weather History Date:

Monday, October 29, 2012

  Actual Average Record
Temperature  
Mean Temperature 57 °F -  
Max Temperature 71 °F - - ()
Min Temperature 43 °F - - ()
Degree Days  
Heating Degree Days 8    
Growing Degree Days 7 (Base 50)    
Moisture  
Dew Point 49 °F    
Average Humidity 71    
Maximum Humidity 93    
Minimum Humidity 36    
Precipitation  
Precipitation 0.00 in - - ()
Sea Level Pressure  
Sea Level Pressure 30.20 in    
Wind  
Wind Speed 5 mph ()    
Max Wind Speed 20 mph    
Max Gust Speed -    
Visibility 6.6 miles    
Events Rain    
T = Trace of Precipitation, MM = Missing Value Source: Averaged Metar Reports

Daily Weather History Graph

Daily Weather History Graph

Search for Another Location

Airport or City:

Trip Planner

Search our weather history database for the weather conditions in past years. The results will help you decide how hot, cold, wet, or windy it might be!

Date:

Astronomy

Oct. 29, 2012 Rise Set
Actual Time 5:56 AM AEDT 7:16 PM AEDT
Civil Twilight 5:31 AM AEDT 7:42 PM AEDT
Nautical Twilight 5:00 AM AEDT 8:13 PM AEDT
Astronomical Twilight 4:28 AM AEDT 8:45 PM AEDT
Moon 6:48 PM AEDT (10/29) 5:15 AM AEDT (10/29)
Length of Visible Light 14h 11m
Length of Day
13h 19m
Waxing Gibbous, 99% of the Moon is Illuminated
Oct 29
Waxing Gibbous
Oct 30
Full
Nov 7
Last Quarter
Nov 14
New
Nov 21
First Quarter

Hourly Weather History & Observations

Time (AEDT) Temp. Windchill Dew Point Humidity Pressure Visibility Wind Dir Wind Speed Gust Speed Precip Events Conditions
12:00 AM 48 °F - 45 °F 84% 30.30 in - Calm Calm - -  
12:00 AM 48.2 °F - 44.6 °F 87% 30.27 in 6.2 mi Calm Calm - N/A   Unknown
12:30 AM 48.2 °F - 44.6 °F 87% 30.27 in 6.2 mi Calm Calm - N/A   Unknown
1:00 AM 46.4 °F - 44.6 °F 93% 30.27 in 6.2 mi Calm Calm - N/A   Unknown
1:30 AM 46.4 °F - 44.6 °F 93% 30.24 in 6.2 mi Calm Calm - N/A   Unknown
2:00 AM 46 °F - 44 °F 89% 30.26 in - Calm Calm - -  
2:00 AM 46.4 °F - 44.6 °F 93% 30.24 in 6.2 mi Calm Calm - N/A   Unknown
2:30 AM 46.4 °F - 44.6 °F 93% 30.24 in 6.2 mi Calm Calm - N/A   Unknown
3:00 AM 46 °F - 44 °F 88% 30.25 in - Calm Calm - -  
3:00 AM 46.4 °F - 42.8 °F 87% 30.24 in 6.2 mi Calm Calm - N/A   Unknown
3:30 AM 44.6 °F - 42.8 °F 93% 30.24 in 6.2 mi Calm Calm - N/A   Unknown
4:00 AM 46.4 °F - 42.8 °F 87% 30.21 in 6.2 mi Calm Calm - N/A   Unknown
4:30 AM 42.8 °F - 41.0 °F 93% 30.21 in 6.2 mi Calm Calm - N/A   Unknown
5:00 AM 45 °F - 44 °F 92% 30.24 in - WNW 5.8 mph - -  
5:00 AM 44.6 °F 41.4 °F 42.8 °F 93% 30.21 in 6.2 mi WNW 5.8 mph - N/A   Unknown
5:30 AM 46.4 °F 44.3 °F 44.6 °F 93% 30.21 in 6.2 mi WNW 4.6 mph - N/A   Scattered Clouds
6:00 AM 46 °F - 44 °F 90% 30.25 in 12 mi Calm Calm - -   Haze
6:00 AM 46.4 °F - 44.6 °F 93% 30.24 in 6.2 mi Calm Calm - N/A   Partly Cloudy
6:30 AM 44.6 °F - 42.8 °F 93% 30.24 in 6.2 mi Calm Calm - N/A   Partly Cloudy
7:00 AM 48.2 °F - 46.4 °F 93% 30.24 in 6.2 mi Calm Calm - N/A   Partly Cloudy
7:30 AM 51.8 °F - 48.2 °F 88% 30.24 in 6.2 mi Calm Calm - N/A   Scattered Clouds
8:00 AM 55 °F - 49 °F 75% 30.27 in - West 5.8 mph - -  
8:00 AM 55.4 °F - 50.0 °F 82% 30.24 in 6.2 mi West 5.8 mph - N/A   Scattered Clouds
8:30 AM 57.2 °F - 50.0 °F 77% 30.27 in 6.2 mi NW 1.2 mph - N/A   Scattered Clouds
9:00 AM 62 °F - 52 °F 62% 30.27 in 9 mi SE 5.8 mph - - Rain Light Rain Showers
9:00 AM 62.6 °F - 51.8 °F 68% 30.24 in 6.2 mi SE 5.8 mph - N/A Rain Light Rain Showers
9:30 AM 64.4 °F - 53.6 °F 68% 30.24 in 6.2 mi SE 11.5 mph - N/A   Scattered Clouds
10:00 AM 66.2 °F - 51.8 °F 60% 30.24 in 6.2 mi SE 9.2 mph - N/A   Scattered Clouds
10:30 AM 68.0 °F - 51.8 °F 56% 30.24 in 6.2 mi East 6.9 mph - N/A   Scattered Clouds
11:00 AM 66 °F - 52 °F 51% 30.25 in - SE 11.5 mph - -  
11:00 AM 66.2 °F - 51.8 °F 60% 30.24 in 6.2 mi SE 11.5 mph - N/A   Mostly Cloudy
11:30 AM 66.2 °F - 53.6 °F 64% 30.24 in 6.2 mi SE 12.7 mph - N/A   Mostly Cloudy
12:00 PM 68 °F - 53 °F 47% 30.24 in 12 mi SE 12.7 mph - -   Haze
12:00 PM 68.0 °F - 51.8 °F 56% 30.21 in 6.2 mi SE 12.7 mph - N/A   Mostly Cloudy
12:30 PM 68.0 °F - 51.8 °F 56% 30.21 in 6.2 mi ESE 10.4 mph - N/A   Mostly Cloudy
1:00 PM 66.2 °F - 55.4 °F 68% 30.21 in 6.2 mi NE 8.1 mph - N/A   Mostly Cloudy
1:30 PM 68.0 °F - 51.8 °F 56% 30.18 in 6.2 mi ESE 8.1 mph - N/A   Mostly Cloudy
2:00 PM 69.8 °F - 51.8 °F 53% 30.18 in 6.2 mi East 11.5 mph - N/A   Mostly Cloudy
2:30 PM 69.8 °F - 51.8 °F 53% 30.15 in 6.2 mi East 12.7 mph - N/A   Scattered Clouds
3:00 PM 71 °F - 50 °F 36% 30.17 in 12 mi East 15.0 mph - -   Haze
3:00 PM 71.6 °F - 50.0 °F 46% 30.15 in 6.2 mi East 15.0 mph - N/A   Scattered Clouds
3:30 PM 71.6 °F - 48.2 °F 43% 30.15 in 6.2 mi East 13.8 mph - N/A   Partly Cloudy
4:00 PM 69.8 °F - 50.0 °F 49% 30.12 in 6.2 mi East 16.1 mph - N/A   Partly Cloudy
4:30 PM 69.8 °F - 51.8 °F 53% 30.12 in 6.2 mi ESE 19.6 mph - N/A   Scattered Clouds
5:00 PM 70 °F - 52 °F 42% 30.13 in - East 16.1 mph - -  
5:00 PM 69.8 °F - 51.8 °F 53% 30.12 in 6.2 mi East 16.1 mph - N/A   Scattered Clouds
5:30 PM 69.8 °F - 48.2 °F 46% 30.12 in 6.2 mi ENE 13.8 mph - N/A   Scattered Clouds
6:00 PM 68 °F - 49 °F 40% 30.14 in - East 15.0 mph - -  
6:00 PM 68.0 °F - 50.0 °F 52% 30.12 in 6.2 mi East 15.0 mph - N/A   Scattered Clouds
6:30 PM 66.2 °F - 51.8 °F 60% 30.12 in 6.2 mi East 13.8 mph - N/A   Scattered Clouds
7:00 PM 64.4 °F - 53.6 °F 68% 30.12 in - ENE 10.4 mph - N/A   Clear
7:30 PM 64.4 °F - 53.6 °F 68% 30.15 in - ENE 10.4 mph - N/A   Clear
8:00 PM 63 °F - 54 °F 64% 30.15 in - ENE 10.4 mph - -  
8:00 PM 62.6 °F - 53.6 °F 72% 30.15 in - ENE 10.4 mph - N/A   Clear
8:30 PM 62.6 °F - 53.6 °F 72% 30.15 in 6.2 mi ENE 9.2 mph - N/A   Unknown
9:00 PM 62.6 °F - 55.4 °F 77% 30.15 in 6.2 mi ENE 8.1 mph - N/A   Unknown
9:30 PM 62.6 °F - 55.4 °F 77% 30.15 in 6.2 mi ENE 6.9 mph - N/A   Unknown
10:00 PM 60.8 °F - 53.6 °F 77% 30.15 in 6.2 mi NE 6.9 mph - N/A   Unknown
10:30 PM 60.8 °F - 51.8 °F 72% 30.12 in 6.2 mi NE 6.9 mph - N/A   Unknown
11:00 PM 59 °F - 53 °F 74% 30.15 in - NE 5.8 mph - -  
11:00 PM 59.0 °F - 53.6 °F 82% 30.12 in 6.2 mi NE 5.8 mph - N/A   Unknown
11:30 PM 59.0 °F - 51.8 °F 77% 30.12 in 6.2 mi ENE 5.8 mph - N/A   Unknown